Flag for Mexico

Past Weather in Tijuana, Baja California, Mexico — Yesterday and Last 2 Weeks

Now
84 °F

Sunny.


Feels Like: 84 °F
Forecast: 85 / 67 °F
Wind: 15 mph from West

Location: Tijuana International Airport
Current Time: Sep 18, 2020 at 5:51:32 pm
Latest Report: Sep 18, 2020 at 4:45 pm
Visibility: 7 mi
Pressure29.85 "Hg
Humidity: 45%
Dew Point: 61 °F
Location of TijuanaLocation

Past Weather in Tijuana — Graph

°F

Tijuana Temperature Yesterday

Maximum temperature yesterday: 97 °F (at 2:42 pm)
Minimum temperature yesterday: 68 °F (at 12:44 am)
Average temperature yesterday: 81 °F

High & Low Weather Summary for the Past Weeks

 TemperatureHumidityPressure
High106 °F (Sep 6, 10:22 am)100% (Sep 13, 7:07 am)30.08 "Hg (Sep 13, 7:07 am)
Low57 °F (Sep 10, 4:54 am)10% (Sep 6, 10:22 am)29.69 "Hg (Sep 8, 3:42 pm)
Average76 °F57%29.91 "Hg
* Reported Sep 3 3:44 pm — Sep 18 3:40 pm, Tijuana. Weather by CustomWeather, © 2020

Note: Actual official high and low records may vary slightly from our data, if they occured in-between our weather recording intervals... More about our weather records

Tijuana Weather History for the Previous 24 Hours

Scroll right to see more
 ConditionsComfort  
Time TempWeatherWind HumidityBarometerVisibility
3:40 pm
Fri, Sep 18
90 °FSunny.18 mph29%29.85 "Hg7 mi
2:42 pm88 °FSunny.20 mph35%29.86 "Hg7 mi
1:41 pm91 °FSunny.21 mph30%29.87 "Hg7 mi
12:41 pm91 °FSunny.15 mph23%29.88 "Hg7 mi
11:42 am97 °FSunny.13 mph12%29.89 "Hg6 mi
10:42 am93 °FSunny.9 mph15%29.91 "Hg6 mi
9:45 am90 °FSunny.3 mph14%29.92 "Hg6 mi
9:21 am86 °FSunny.6 mph15%29.91 "Hg6 mi
8:45 am81 °FSunny.5 mph21%29.92 "Hg6 mi
8:15 am77 °FSunny.3 mph32%29.92 "Hg6 mi
7:41 am72 °FSunny.5 mph50%29.91 "Hg6 mi
7:01 am64 °FSunny.7 mph60%29.91 "Hg6 mi
6:00 am64 °FClear.No wind49%29.90 "Hg8 mi
4:59 am66 °FClear.No wind37%29.89 "Hg8 mi
12:56 am70 °FClear.No wind35%29.90 "Hg8 mi
11:59 pm
Thu, Sep 17
70 °FClear.No wind35%29.91 "Hg8 mi
10:50 pm72 °FClear.No wind38%29.92 "Hg8 mi
9:48 pm73 °FClear.No wind33%29.92 "Hg8 mi
8:56 pm75 °FClear.No wind27%29.91 "Hg8 mi
7:42 pm77 °FClear.7 mph32%29.89 "Hg8 mi
6:43 pm79 °FPartly sunny.8 mph37%29.87 "Hg10 mi
5:42 pm86 °FPartly sunny.12 mph27%29.87 "Hg10 mi
Weather by CustomWeather, © 2020

See weather overview